Content
SEND FEEDBACK

Daily
Averages
Monthly
Summary
United States of America

ALPINE MEADOWS, CALIFORNIA


Home > North America > United States > California
Elevation: 1900 meters     Latitude: 39 12N     Longitude: 120 14W

WEATHER
 
SELECT A DAY
Number of Records: 282,089;   Date Range: 1/1/95 - 7/20/14
 
SHARE

PRINT THIS DATA

[ ← Previous Day ]
WEATHER ALMANAC - 9 NOVEMBER, 2013
[ Next Day → ]
[ °F ]   °C
Weather ElementAverageHighLow
Temperature0.6 °C17 °C (1:45 pm)-6 °C (5:35 am)
Dewpoint-4.8 °C-3 °C (7:55 am)-7 °C (12:35 am)
Humidity73 %100 % (4:35 am)22 % (1:45 pm)
Barometer1022.4 hPa1024 hPa (11:35 pm)1020.7 hPa (12:45 pm)
Wind Speed2.3 km/h18.5 km/h (1:45 pm)
Wind Gust25.9 km/h (1:45 pm)
Weather ElementAverage
Visibility15.4 km
Wind DirectionENE (54.2 °)

Weather ElementTotal
Precipitation---
Heating Degree Days12.8 (Base 18.3)
Averaged from 45 records on 9 November, 2013
WEATHER CONDITIONS BREAKOUT
WIND DIRECTION BREAKOUT
WEATHER BY HOUR - 9 NOVEMBER, 2013
[ °F ]   °C
Local TimeTemperatureDewpointHumidityBarometerVisibilityWind DirectionWind SpeedGust SpeedPrecipitationEventsConditions
12:35 AM-4 °C-7 °C80 %1021 hPa16.1 kmCalmClear
12:55 AM-4 °C-5 °C93 %1021 hPa16.1 kmCalmClear
1:15 AM-5 °C-7 °C86 %1021 hPa16.1 kmCalmClear
1:35 AM-4 °C-6 °C86 %1021 hPa16.1 kmCalmClear
1:55 AM-4 °C-7 °C80 %1021.3 hPa16.1 kmCalmClear
2:15 AM-5 °C-7 °C86 %1021.3 hPa16.1 kmCalmClear
2:35 AM-4 °C-6 °C86 %1021.7 hPa16.1 kmCalmClear
2:55 AM-4 °C-5 °C93 %1021.7 hPa16.1 kmCalmClear
3:15 AM-4 °C-5 °C93 %1021.7 hPa16.1 kmCalmClear
3:35 AM-4 °C-5 °C93 %1021.7 hPa16.1 kmCalmClear
3:55 AM-4 °C-5 °C93 %1021.7 hPa16.1 kmCalmClear
4:15 AM-4 °C-5 °C93 %1021.7 hPa16.1 kmCalmClear
4:35 AM-5 °C-5 °C100 %1021.7 hPa16.1 kmCalmClear
4:55 AM-4 °C-5 °C93 %1022 hPa11.3 kmCalmClear
5:15 AM-5 °C-6 °C93 %1022 hPa4.8 kmCalmClear
5:35 AM-6 °C-7 °C93 %1022 hPa2.4 kmCalmClear
6:50 AM-5 °C-5 °C100 %1022.4 hPa16.1 kmCalmClear
7:55 AM-2 °C-3 °C93 %1022.7 hPa16.1 kmCalmClear
8:55 AM2 °C-3 °C70 %1022.7 hPa16.1 kmCalmClear
9:45 AM5 °C-3 °C57 %1022.7 hPa16.1 kmCalmClear
10:45 AM9 °C-3 °C43 %1022.4 hPa16.1 kmCalmClear
12:45 PM16 °C-5 °C23 %1020.7 hPa16.1 kmSSW (200°)11.1 km/hClear
1:45 PM17 °C-5 °C22 %1020.7 hPa16.1 kmWSW (240°)18.5 km/h25.9 km/hClear
2:55 PM16 °C-5 °C23 %1021 hPa16.1 kmWSW (250°)11.1 km/hClear
4:45 PM12 °C-5 °C30 %1021.3 hPa16.1 kmWest (270°)9.3 km/hClear
4:55 PM9 °C-5 °C37 %1021.3 hPa16.1 kmSSE (150°)5.6 km/hClear
5:15 PM7 °C-4 °C46 %1021.7 hPa16.1 kmESE (120°)7.4 km/hClear
5:35 PM7 °C-4 °C46 %1021.7 hPa16.1 kmSSE (160°)9.3 km/hClear
6:35 PM4 °C-4 °C56 %1022.7 hPa16.1 kmSSW (210°)5.6 km/hClear
6:55 PM3 °C-4 °C60 %1022.7 hPa16.1 kmCalmClear
7:15 PM2 °C-4 °C65 %1022.7 hPa16.1 kmSW (230°)5.6 km/hClear
7:35 PM3 °C-4 °C60 %1022.7 hPa16.1 kmSouth (180°)5.6 km/hClear
7:55 PM1 °C-4 °C70 %1023 hPa16.1 kmCalmClear
8:15 PM2 °C-4 °C65 %1023 hPa16.1 kmCalmClear
8:35 PM1 °C-4 °C70 %1023.4 hPa16.1 kmCalmClear
8:55 PM-1 °C-5 °C75 %1023.4 hPa16.1 kmSSW (210°)5.6 km/hClear
9:15 PM-1 °C-4 °C80 %1023.7 hPa16.1 kmCalmClear
9:35 PM0 °C-4 °C75 %1023.7 hPa16.1 kmSW (220°)5.6 km/hClear
9:55 PM0 °C-4 °C75 %1023.7 hPa16.1 kmCalmClear
10:15 PM0 °C-4 °C75 %1023.7 hPa16.1 kmCalmClear
10:35 PM-2 °C-4 °C86 %1023.7 hPa16.1 kmCalmClear
10:55 PM-2 °C-4 °C86 %1023.7 hPa16.1 kmCalmClear
11:15 PM-2 °C-4 °C86 %1023.7 hPa16.1 kmCalmClear
11:35 PM-3 °C-5 °C86 %1024 hPa16.1 kmCalmClear
11:55 PM-3 °C-5 °C86 %1024 hPa16.1 kmCalmClear
Hourly data recorded from KTRK, located 0 kilometers away from Alpine Meadows, California







STORIES FROM OUR PARTNERS